User: anonymous   Login
Location: Unspecified
(0.0000°N, 0.0000°E)
Time: 18:12:24
(UTC+00:00)
Language:

SPOT 7 - Orbit

View from above orbital plane
View from above orbital plane
View from above satellite
View from above satellite

Ground track
Ground track

The orbit data is extracted from the following two-line orbital elements,

1 40053U 14034A   18292.52303172 -.00000031  00000-0  30640-5 0  9992
2 40053  98.1752 358.1936 0001479  95.8436 264.2935 14.58562508229207
Epoch (UTC): 19 October 2018 12:33:09
Eccentricity: 0.0001479
inclination: 98.1752°
perigee height: 697 km
apogee height: 699 km
right ascension of ascending node: 358.1936°
argument of perigee: 95.8436°
revolutions per day: 14.58562508
mean anomaly at epoch: 264.2935°
orbit number at epoch: 22920

The dashed part of the orbit path shows where the satellite is in the earth's shadow,  

DLR